Location: Sobotiste
(48.7170°N, 17.4000°E)
Time: 00:06:33
(UTC+01:00)

METEOR M2 - Visible Passes

Search period start: 15 March 2026 00:00
Search period end: 25 March 2026 00:00
Orbit: 817 x 824 km, 98.5° (Epoch: 14 March)

Date Brightness Start Highest point End Pass type
(mag) Time Alt. Az. Time Alt. Az. Time Alt. Az.
15 Mar ? 04:00:46 10° NNE 04:06:06 58° E 04:11:23 10° S visible
16 Mar ? 03:40:17 10° NNE 03:45:20 39° E 03:50:21 10° SSE visible
16 Mar ? 05:20:33 10° N 05:25:24 35° WNW 05:30:14 10° SW visible
17 Mar ? 03:19:58 10° NE 03:24:31 27° E 03:29:03 10° SSE visible
17 Mar ? 04:59:41 10° N 05:04:52 50° WNW 05:10:03 10° SW visible
18 Mar ? 02:59:54 10° NE 03:03:38 19° E 03:07:20 10° SE visible
18 Mar ? 04:38:55 10° N 04:44:18 72° WNW 04:49:39 10° SSW visible
19 Mar ? 02:40:27 10° ENE 02:42:40 12° E 02:44:53 10° ESE visible
19 Mar ? 04:18:14 10° NNE 04:23:40 80° ESE 04:29:02 10° SSW visible
20 Mar ? 03:57:39 10° NNE 04:02:57 55° E 04:08:13 10° S visible
21 Mar ? 03:37:11 10° NNE 03:42:11 37° E 03:47:09 10° SSE visible
21 Mar ? 05:17:23 10° N 05:22:17 37° WNW 05:27:10 10° SW visible
22 Mar ? 03:16:53 10° NE 03:21:21 26° E 03:25:47 10° SSE visible
22 Mar ? 04:56:32 10° N 05:01:45 52° WNW 05:06:57 10° SW visible
23 Mar ? 02:56:53 10° NE 03:00:28 18° E 03:04:01 10° SE visible
23 Mar ? 04:35:47 10° NNE 04:41:11 76° WNW 04:46:32 10° SSW visible
24 Mar ? 02:37:36 10° ENE 02:39:29 12° E 02:41:23 10° ESE visible
24 Mar ? 04:15:06 10° NNE 04:20:31 76° ESE 04:25:54 10° S visible
